Overview Statistics Trail Chart Weather Telemetry Raw packets
 

This is the latest recevied weather packets stored in our database for station/object W0CHP-13. If no packets are shown the sender has not sent any weather packets the latest 10 day(s).

<< 9 10 11 12 13 14 15 >>
Time Temp. Humidity Pressure Rain* Wind** Luminosity Snow
1788542115 30° C 73% 1009.9 hPa - - 421 W/m² -
1788541518 30° C 70% 1010.3 hPa - - 168 W/m² -
1788540915 30° C 70% 1010.3 hPa - - 148 W/m² -
1788540317 30.56° C 69% 1010.3 hPa - - 127 W/m² -
1788539719 30.56° C 67% 1010.3 hPa - - 125 W/m² -
1788539117 31.11° C 68% 1010.3 hPa - - 607 W/m² -
1788538515 30.56° C 68% 1010.2 hPa - - 590 W/m² -
1788537917 30.56° C 72% 1010.2 hPa - - 567 W/m² -
1788537318 30° C 72% 1010.3 hPa - - 551 W/m² -
1788536745 30° C 71% 1010.3 hPa - - 462 W/m² -
1788536118 30° C 73% 1010.6 hPa - - 508 W/m² -
1788535518 29.44° C 74% 1010.6 hPa - - 406 W/m² -
1788534917 29.44° C 77% 1010.6 hPa - - 355 W/m² -
1788534315 28.89° C 78% 1010.6 hPa - - 327 W/m² -
1788533751 28.89° C 79% 1010.3 hPa - - 387 W/m² -
1788533115 28.33° C 81% 1010.6 hPa - - 377 W/m² -
1788532517 27.78° C 85% 1010.3 hPa - - 373 W/m² -
1788531916 27.22° C 85% 1010.2 hPa - - 226 W/m² -
1788531317 26.67° C 89% 1010.3 hPa - - 301 W/m² -
1788530716 25.56° C 92% 1009.9 hPa - - 252 W/m² -
1788530115 25.56° C 94% 1009.9 hPa - - 221 W/m² -
1788529518 25° C 95% 1009.9 hPa - - 179 W/m² -
1788528915 25° C 95% 1009.9 hPa - - 46 W/m² -
1788528318 25° C 96% 1009.9 hPa - - 53 W/m² -
1788527716 24.44° C 96% 1009.9 hPa - - 61 W/m² -

* Rain since midnight (hover to see other rain measurements)
** Current wind speed in m/s (hover to see current wind gust speed)